Погода в Шалушке

Россия / Кабардино-Балкарская Республика     43°31′48″N   43°33′45″E
темп.,
°C
ветер,
м/с
пор.,
м/с
влажн.,
%
обл.,
%
осадки,
мм/ч
давл.,
гПа
погр.,
м
27 января, ср
ср2700:00+2юз1259100 0.0 102022
03:00+2юз125290 0.0 101822
06:00+2ююз124935 0.0 101722
09:00+3ююв115467 0.0 101422
12:00+6всв115795 0.0 101287
15:00+4всв117198 0.0 101095
18:00+2юв118395 0.0 101022
21:00+3ююз116998 0.0 101028
28 января, чт
чт2800:00+4юз2257100 0.0 101029
03:00+5юз225078 0.0 100827
06:00+5юз224745 0.0 100625
09:00+7юз225059 0.0 100530
12:00+9в1157100 0.0 100468
15:00+5вюв118098 0.1 1005130
18:00+3з11812 0.0 101022
21:00+3вюв118517 0.0 101237
29 января, пт
пт2900:00+1всв2498100 0.9 1013186
03:000всв1198100 4.0 1012108
06:00−1вюв1299100 4.3 1013132
09:00−1всв2298100 6.9 1014176
12:00−1всв2297100 0.8 1013244
15:00−1ссв1297100 0.9 1014183
18:00−2ю1196100 0.3 101646
21:00−2ю239497 0.3 101685
30 января, сб
сб3000:00−3ююз228917 0.0 101624
03:00−3ююз228413 0.0 101622
06:00−3ююз117955 0.0 101521
09:000ююв117273 0.0 101551
12:00+2св218044 0.0 1012237
15:00+1всв118541 0.0 1010260
18:00−1ю119037 0.0 101222
21:00−1ююз117218 0.0 101221
31 января, вс
вс3100:00−1ююз11590 0.0 101021
03:00−1юз12570 0.0 100922
06:000юз12580 0.0 100824
09:00+2ююз116050 0.0 100941
12:00+6св0168100 0.0 100949
15:00+5св1176100 0.0 101152
18:00+1юз227046 0.0 101522
21:00+2ююз236250 0.0 101823